AMOS-4 1 39237U 13045A 21060.61794226 .00000000 00000-0 00000-0 0 9993 2 39237 0.0318 251.2578 0002508 93.1157 102.6753 1.00271839 27564 SL-23 R/B 1 39238U 13045B 21060.59667200 -.00000106 00000-0 00000-0 0 9990 2 39238 26.6976 100.9213 6392229 191.7448 140.0195 2.10660397 57710